owner,sensor,date,latitude,longitude,vertical_datum,sea_water_temperature,qcFlag
BP,ioos:station:wmo:42369:3,2022-08-01T00:00:00Z,27.2161,-90.2774,521.5,11.1,11111222
BP,ioos:station:wmo:42369:3,2022-08-01T00:20:00Z,27.2161,-90.2774,521.7,11.1,11111222
BP,ioos:station:wmo:42369:3,2022-08-01T00:40:00Z,27.2160,-90.2773,522.4,11.1,11111222
BP,ioos:station:wmo:42369:3,2022-08-01T01:00:00Z,27.2160,-90.2773,520.9,11.1,11111222
BP,ioos:station:wmo:42369:3,2022-08-01T01:20:00Z,27.2160,-90.2773,521.1,11.1,11111222
BP,ioos:station:wmo:42369:3,2022-08-01T01:40:00Z,27.2160,-90.2772,520.3,11.2,11111222
BP,ioos:station:wmo:42369:3,2022-08-01T02:00:00Z,27.2160,-90.2773,522.5,11.2,11111222
BP,ioos:station:wmo:42369:3,2022-08-01T02:20:00Z,27.2160,-90.2772,521.2,11.2,11111222
BP,ioos:station:wmo:42369:3,2022-08-01T02:40:00Z,27.2160,-90.2777,519.8,11.2,11111222
BP,ioos:station:wmo:42369:3,2022-08-01T03:00:00Z,27.2160,-90.2777,519.1,11.2,11111222
BP,ioos:station:wmo:42369:3,2022-08-01T03:20:00Z,27.2160,-90.2778,519.1,11.3,11111222
BP,ioos:station:wmo:42369:3,2022-08-01T03:40:00Z,27.2160,-90.2779,518.0,11.3,11111222
BP,ioos:station:wmo:42369:3,2022-08-01T04:00:00Z,27.2160,-90.2779,516.3,11.3,11111222
BP,ioos:station:wmo:42369:3,2022-08-01T04:20:00Z,27.2160,-90.2780,514.9,11.3,11111222
BP,ioos:station:wmo:42369:3,2022-08-01T04:40:00Z,27.2161,-90.2780,514.2,11.3,11111222
BP,ioos:station:wmo:42369:3,2022-08-01T05:00:00Z,27.2159,-90.2775,513.5,11.3,11111222
BP,ioos:station:wmo:42369:3,2022-08-01T05:20:00Z,27.2160,-90.2776,512.8,11.4,11111222
BP,ioos:station:wmo:42369:3,2022-08-01T05:40:00Z,27.2160,-90.2777,512.5,11.4,11111222
BP,ioos:station:wmo:42369:3,2022-08-01T06:00:00Z,27.2160,-90.2778,511.6,11.4,11111222
BP,ioos:station:wmo:42369:3,2022-08-01T06:20:00Z,27.2160,-90.2779,511.0,11.4,11111222
BP,ioos:station:wmo:42369:3,2022-08-01T06:40:00Z,27.2160,-90.2779,511.3,11.4,11111222
BP,ioos:station:wmo:42369:3,2022-08-01T07:00:00Z,27.2160,-90.2780,510.2,11.4,11111222
BP,ioos:station:wmo:42369:3,2022-08-01T07:20:00Z,27.2160,-90.2780,509.9,11.5,11111222
BP,ioos:station:wmo:42369:3,2022-08-01T07:40:00Z,27.2161,-90.2780,508.9,11.5,11111222
BP,ioos:station:wmo:42369:3,2022-08-01T08:00:00Z,27.2161,-90.2780,508.2,11.4,11111222
BP,ioos:station:wmo:42369:3,2022-08-01T08:20:00Z,27.2161,-90.2780,508.3,11.4,11111222
BP,ioos:station:wmo:42369:3,2022-08-01T08:40:00Z,27.2161,-90.2780,509.7,11.5,11111222
BP,ioos:station:wmo:42369:3,2022-08-01T09:00:00Z,27.2161,-90.2780,509.6,11.5,11111222
BP,ioos:station:wmo:42369:3,2022-08-01T09:20:00Z,27.2161,-90.2780,509.9,11.5,11111222
BP,ioos:station:wmo:42369:3,2022-08-01T09:40:00Z,27.2161,-90.2780,510.3,11.5,11111222
BP,ioos:station:wmo:42369:3,2022-08-01T10:00:00Z,27.2161,-90.2780,510.7,11.5,11111222
BP,ioos:station:wmo:42369:3,2022-08-01T10:20:00Z,27.2161,-90.2780,509.9,11.4,11111222
BP,ioos:station:wmo:42369:3,2022-08-01T10:40:00Z,27.2161,-90.2780,510.2,11.4,11111222
BP,ioos:station:wmo:42369:3,2022-08-01T11:00:00Z,27.2161,-90.2780,510.7,11.4,11111222
BP,ioos:station:wmo:42369:3,2022-08-01T11:20:00Z,27.2161,-90.2780,510.5,11.4,11111222
BP,ioos:station:wmo:42369:3,2022-08-01T11:40:00Z,27.2161,-90.2780,510.9,11.5,11111222
BP,ioos:station:wmo:42369:3,2022-08-01T12:00:00Z,27.2161,-90.2779,512.3,11.5,11111222
BP,ioos:station:wmo:42369:3,2022-08-01T12:20:00Z,27.2160,-90.2779,511.4,11.5,11111222
BP,ioos:station:wmo:42369:3,2022-08-01T12:40:00Z,27.2161,-90.2779,511.3,11.5,11111222
BP,ioos:station:wmo:42369:3,2022-08-01T13:00:00Z,27.2161,-90.2779,511.0,11.5,11111222
BP,ioos:station:wmo:42369:3,2022-08-01T13:20:00Z,27.2161,-90.2780,512.3,11.5,11111222
BP,ioos:station:wmo:42369:3,2022-08-01T13:40:00Z,27.2162,-90.2780,512.6,11.4,11111222
BP,ioos:station:wmo:42369:3,2022-08-01T14:00:00Z,27.2162,-90.2780,512.7,11.4,11111222
BP,ioos:station:wmo:42369:3,2022-08-01T14:20:00Z,27.2162,-90.2780,513.5,11.4,11111222
BP,ioos:station:wmo:42369:3,2022-08-01T14:40:00Z,27.2162,-90.2780,512.4,11.4,11111222
BP,ioos:station:wmo:42369:3,2022-08-01T15:00:00Z,27.2162,-90.2780,513.3,11.4,11111222
BP,ioos:station:wmo:42369:3,2022-08-01T15:20:00Z,27.2162,-90.2780,515.9,11.4,11111222
BP,ioos:station:wmo:42369:3,2022-08-01T15:40:00Z,27.2162,-90.2780,515.0,11.4,11111222
BP,ioos:station:wmo:42369:3,2022-08-01T16:00:00Z,27.2162,-90.2780,516.3,11.4,11111222
BP,ioos:station:wmo:42369:3,2022-08-01T16:20:00Z,27.2162,-90.2780,516.1,11.4,11111222
BP,ioos:station:wmo:42369:3,2022-08-01T17:00:00Z,27.2161,-90.2778,515.6,11.4,11111222
BP,ioos:station:wmo:42369:3,2022-08-01T17:20:00Z,27.2161,-90.2777,517.1,11.4,11111222
BP,ioos:station:wmo:42369:3,2022-08-01T17:40:00Z,27.2161,-90.2777,516.3,11.4,11111222
BP,ioos:station:wmo:42369:3,2022-08-01T18:00:00Z,27.2160,-90.2776,516.8,11.4,11111222
BP,ioos:station:wmo:42369:3,2022-08-01T18:20:00Z,27.2159,-90.2775,517.3,11.4,11111222
BP,ioos:station:wmo:42369:3,2022-08-01T18:40:00Z,27.2159,-90.2775,516.5,11.4,11111222
BP,ioos:station:wmo:42369:3,2022-08-01T19:00:00Z,27.2162,-90.2779,515.9,11.4,11111222
BP,ioos:station:wmo:42369:3,2022-08-01T19:20:00Z,27.2162,-90.2778,514.5,11.4,11111222
BP,ioos:station:wmo:42369:3,2022-08-01T19:40:00Z,27.2161,-90.2778,515.2,11.4,11111222
BP,ioos:station:wmo:42369:3,2022-08-01T20:00:00Z,27.2161,-90.2777,514.5,11.4,11111222
BP,ioos:station:wmo:42369:3,2022-08-01T20:20:00Z,27.2160,-90.2776,514.8,11.4,11111222
BP,ioos:station:wmo:42369:3,2022-08-01T20:40:00Z,27.2160,-90.2775,513.4,11.4,11111222
BP,ioos:station:wmo:42369:3,2022-08-01T21:00:00Z,27.2159,-90.2775,512.9,11.4,11111222
BP,ioos:station:wmo:42369:3,2022-08-01T21:20:00Z,27.2159,-90.2775,511.6,11.4,11111222
BP,ioos:station:wmo:42369:3,2022-08-01T21:40:00Z,27.2158,-90.2773,511.5,11.4,11111222
BP,ioos:station:wmo:42369:3,2022-08-01T22:00:00Z,27.2158,-90.2773,512.2,11.4,11111222
BP,ioos:station:wmo:42369:3,2022-08-01T22:20:00Z,27.2158,-90.2772,513.8,11.4,11111222
BP,ioos:station:wmo:42369:3,2022-08-01T23:20:00Z,27.2155,-90.2771,511.6,11.5,11111222
BP,ioos:station:wmo:42369:3,2022-08-01T23:40:00Z,27.2155,-90.2771,512.0,11.5,11111222
BP,ioos:station:wmo:42369:3,2022-08-02T00:00:00Z,27.2155,-90.2771,510.4,11.5,11111222
BP,ioos:station:wmo:42369:3,2022-08-02T00:40:00Z,27.2155,-90.2771,510.3,11.5,11111222
BP,ioos:station:wmo:42369:3,2022-08-02T01:00:00Z,27.2156,-90.2771,508.8,11.6,11111222
BP,ioos:station:wmo:42369:3,2022-08-02T01:20:00Z,27.2156,-90.2771,507.1,11.6,11111222
BP,ioos:station:wmo:42369:3,2022-08-02T01:40:00Z,27.2155,-90.2771,507.5,11.6,11111222
BP,ioos:station:wmo:42369:3,2022-08-02T02:00:00Z,27.2155,-90.2771,506.2,11.7,11111222
BP,ioos:station:wmo:42369:3,2022-08-02T02:20:00Z,27.2155,-90.2771,505.1,11.7,11111222
BP,ioos:station:wmo:42369:3,2022-08-02T02:40:00Z,27.2155,-90.2771,503.9,11.8,11111222
BP,ioos:station:wmo:42369:3,2022-08-02T03:00:00Z,27.2154,-90.2770,503.1,11.8,11111222
BP,ioos:station:wmo:42369:3,2022-08-02T03:20:00Z,27.2154,-90.2771,502.5,11.9,11111222
BP,ioos:station:wmo:42369:3,2022-08-02T03:40:00Z,27.2154,-90.2771,501.4,11.9,11111222
BP,ioos:station:wmo:42369:3,2022-08-02T04:00:00Z,27.2154,-90.2771,501.5,12.0,11111222
BP,ioos:station:wmo:42369:3,2022-08-02T04:20:00Z,27.2154,-90.2772,499.9,12.0,11111222
BP,ioos:station:wmo:42369:3,2022-08-02T04:40:00Z,27.2155,-90.2774,497.6,12.0,11111222
BP,ioos:station:wmo:42369:3,2022-08-02T05:00:00Z,27.2155,-90.2775,497.1,12.1,11111222
BP,ioos:station:wmo:42369:3,2022-08-02T05:20:00Z,27.2155,-90.2776,496.6,12.1,11111222
BP,ioos:station:wmo:42369:3,2022-08-02T05:40:00Z,27.2156,-90.2777,496.7,12.1,11111222
BP,ioos:station:wmo:42369:3,2022-08-02T06:00:00Z,27.2157,-90.2778,496.6,12.1,11111222
BP,ioos:station:wmo:42369:3,2022-08-02T06:20:00Z,27.2157,-90.2779,497.1,12.1,11111222
BP,ioos:station:wmo:42369:3,2022-08-02T06:40:00Z,27.2157,-90.2780,497.3,12.1,11111222
BP,ioos:station:wmo:42369:3,2022-08-02T07:00:00Z,27.2157,-90.2780,497.8,12.1,11111222
BP,ioos:station:wmo:42369:3,2022-08-02T07:20:00Z,27.2158,-90.2780,498.2,12.1,11111222
BP,ioos:station:wmo:42369:3,2022-08-02T07:40:00Z,27.2157,-90.2780,498.0,12.1,11111222
BP,ioos:station:wmo:42369:3,2022-08-02T08:00:00Z,27.2157,-90.2779,497.2,12.1,11111222
BP,ioos:station:wmo:42369:3,2022-08-02T08:20:00Z,27.2157,-90.2779,497.6,12.1,11111222
BP,ioos:station:wmo:42369:3,2022-08-02T08:40:00Z,27.2157,-90.2779,497.4,12.1,11111222
BP,ioos:station:wmo:42369:3,2022-08-02T09:00:00Z,27.2157,-90.2779,496.7,12.1,11111222
BP,ioos:station:wmo:42369:3,2022-08-02T09:20:00Z,27.2156,-90.2779,496.3,12.1,11111222
BP,ioos:station:wmo:42369:3,2022-08-02T09:40:00Z,27.2156,-90.2779,495.8,12.1,11111222
BP,ioos:station:wmo:42369:3,2022-08-02T10:00:00Z,27.2156,-90.2779,496.9,12.1,11111222
BP,ioos:station:wmo:42369:3,2022-08-02T10:20:00Z,27.2156,-90.2778,497.0,12.1,11111222
BP,ioos:station:wmo:42369:3,2022-08-02T10:40:00Z,27.2156,-90.2778,496.3,12.1,11111222
BP,ioos:station:wmo:42369:3,2022-08-02T11:00:00Z,27.2156,-90.2778,496.5,12.1,11111222
BP,ioos:station:wmo:42369:3,2022-08-02T11:20:00Z,27.2156,-90.2777,496.0,12.1,11111222
BP,ioos:station:wmo:42369:3,2022-08-02T11:40:00Z,27.2156,-90.2779,496.3,12.2,11111222
BP,ioos:station:wmo:42369:3,2022-08-02T12:00:00Z,27.2156,-90.2779,495.1,12.2,11111222
BP,ioos:station:wmo:42369:3,2022-08-02T12:20:00Z,27.2156,-90.2779,496.0,12.2,11111222
BP,ioos:station:wmo:42369:3,2022-08-02T12:40:00Z,27.2157,-90.2780,496.9,12.2,11111222
BP,ioos:station:wmo:42369:3,2022-08-02T13:00:00Z,27.2157,-90.2780,497.4,12.2,11111222
BP,ioos:station:wmo:42369:3,2022-08-02T13:20:00Z,27.2157,-90.2780,498.2,12.2,11111222
BP,ioos:station:wmo:42369:3,2022-08-02T13:40:00Z,27.2156,-90.2780,497.7,12.2,11111222
BP,ioos:station:wmo:42369:3,2022-08-02T14:00:00Z,27.2156,-90.2779,497.2,12.2,11111222
BP,ioos:station:wmo:42369:3,2022-08-02T14:20:00Z,27.2156,-90.2780,496.0,12.2,11111222
BP,ioos:station:wmo:42369:3,2022-08-02T14:40:00Z,27.2156,-90.2781,496.8,12.3,11111222
BP,ioos:station:wmo:42369:3,2022-08-02T15:00:00Z,27.2156,-90.2781,497.1,12.3,11111222
BP,ioos:station:wmo:42369:3,2022-08-02T16:00:00Z,27.2157,-90.2779,497.0,12.3,11111222
BP,ioos:station:wmo:42369:3,2022-08-02T16:20:00Z,27.2157,-90.2779,496.9,12.3,11111222
BP,ioos:station:wmo:42369:3,2022-08-02T16:40:00Z,27.2156,-90.2779,495.3,12.3,11111222
BP,ioos:station:wmo:42369:3,2022-08-02T17:00:00Z,27.2156,-90.2779,496.1,12.3,11111222
BP,ioos:station:wmo:42369:3,2022-08-02T17:20:00Z,27.2156,-90.2779,495.5,12.3,11111222
BP,ioos:station:wmo:42369:3,2022-08-02T17:40:00Z,27.2157,-90.2780,495.1,12.3,11111222
BP,ioos:station:wmo:42369:3,2022-08-02T18:00:00Z,27.2157,-90.2780,494.5,12.3,11111222
BP,ioos:station:wmo:42369:3,2022-08-02T18:20:00Z,27.2157,-90.2780,493.9,12.3,11111222
BP,ioos:station:wmo:42369:3,2022-08-02T18:40:00Z,27.2156,-90.2780,494.1,12.3,11111222
BP,ioos:station:wmo:42369:3,2022-08-02T19:00:00Z,27.2156,-90.2780,493.1,12.3,11111222
BP,ioos:station:wmo:42369:3,2022-08-02T19:20:00Z,27.2156,-90.2780,493.0,12.3,11111222
BP,ioos:station:wmo:42369:3,2022-08-02T19:40:00Z,27.2156,-90.2781,492.3,12.3,11111222
BP,ioos:station:wmo:42369:3,2022-08-02T21:20:00Z,27.2155,-90.2781,488.9,12.4,11111222
BP,ioos:station:wmo:42369:3,2022-08-02T21:40:00Z,27.2155,-90.2781,489.0,12.4,11111222
BP,ioos:station:wmo:42369:3,2022-08-02T22:00:00Z,27.2155,-90.2781,489.4,12.4,11111222
BP,ioos:station:wmo:42369:3,2022-08-02T22:20:00Z,27.2155,-90.2780,488.9,12.3,11111222
BP,ioos:station:wmo:42369:3,2022-08-02T22:40:00Z,27.2155,-90.2780,489.1,12.3,11111222
BP,ioos:station:wmo:42369:3,2022-08-02T23:40:00Z,27.2157,-90.2788,489.6,12.3,11111222
BP,ioos:station:wmo:42369:3,2022-08-03T00:00:00Z,27.2155,-90.2782,488.8,12.3,11111222
BP,ioos:station:wmo:42369:3,2022-08-03T00:20:00Z,27.2155,-90.2781,487.4,12.3,11111222
BP,ioos:station:wmo:42369:3,2022-08-03T00:40:00Z,27.2155,-90.2780,488.1,12.3,11111222
BP,ioos:station:wmo:42369:3,2022-08-03T01:20:00Z,27.2157,-90.2788,487.0,12.3,11111222
BP,ioos:station:wmo:42369:3,2022-08-03T01:40:00Z,27.2157,-90.2788,487.8,12.3,11111222
BP,ioos:station:wmo:42369:3,2022-08-03T02:00:00Z,27.2157,-90.2788,487.6,12.3,11111222
BP,ioos:station:wmo:42369:3,2022-08-03T02:20:00Z,27.2157,-90.2788,487.3,12.3,11111222
BP,ioos:station:wmo:42369:3,2022-08-03T02:40:00Z,27.2157,-90.2788,487.6,12.4,11111222
BP,ioos:station:wmo:42369:3,2022-08-03T03:00:00Z,27.2157,-90.2788,487.3,12.4,11111222
BP,ioos:station:wmo:42369:3,2022-08-03T03:20:00Z,27.2157,-90.2789,487.0,12.4,11111222
BP,ioos:station:wmo:42369:3,2022-08-03T04:40:00Z,27.2160,-90.2792,485.2,12.6,11111222
BP,ioos:station:wmo:42369:3,2022-08-03T05:00:00Z,27.2160,-90.2792,484.0,12.6,11111222
BP,ioos:station:wmo:42369:3,2022-08-03T05:40:00Z,27.2161,-90.2797,483.2,12.7,11111222
BP,ioos:station:wmo:42369:3,2022-08-03T06:00:00Z,27.2157,-90.2788,482.4,12.7,11111222
BP,ioos:station:wmo:42369:3,2022-08-03T06:20:00Z,27.2157,-90.2788,481.8,12.7,11111222
BP,ioos:station:wmo:42369:3,2022-08-03T06:40:00Z,27.2157,-90.2788,483.0,12.7,11111222
BP,ioos:station:wmo:42369:3,2022-08-03T07:00:00Z,27.2157,-90.2788,482.7,12.7,11111222
BP,ioos:station:wmo:42369:3,2022-08-03T07:20:00Z,27.2157,-90.2789,482.2,12.7,11111222
BP,ioos:station:wmo:42369:3,2022-08-03T08:00:00Z,27.2161,-90.2797,482.5,12.7,11111222
BP,ioos:station:wmo:42369:3,2022-08-03T08:20:00Z,27.2161,-90.2797,482.4,12.7,11111222
BP,ioos:station:wmo:42369:3,2022-08-03T08:40:00Z,27.2161,-90.2798,483.8,12.7,11111222
BP,ioos:station:wmo:42369:3,2022-08-03T09:00:00Z,27.2160,-90.2801,485.0,12.8,11111222
BP,ioos:station:wmo:42369:3,2022-08-03T09:20:00Z,27.2160,-90.2801,484.2,12.8,11111222
BP,ioos:station:wmo:42369:3,2022-08-03T09:40:00Z,27.2160,-90.2801,485.6,12.7,11111222
BP,ioos:station:wmo:42369:3,2022-08-03T10:40:00Z,27.2159,-90.2801,485.6,12.7,11111222
BP,ioos:station:wmo:42369:3,2022-08-03T11:00:00Z,27.2160,-90.2792,486.0,12.7,11111222
BP,ioos:station:wmo:42369:3,2022-08-03T11:20:00Z,27.2159,-90.2801,486.2,12.7,11111222
BP,ioos:station:wmo:42369:3,2022-08-03T12:00:00Z,27.2159,-90.2801,487.5,12.7,11111222
BP,ioos:station:wmo:42369:3,2022-08-03T12:20:00Z,27.2159,-90.2801,485.5,12.6,11111222
BP,ioos:station:wmo:42369:3,2022-08-03T12:40:00Z,27.2159,-90.2801,486.7,12.6,11111222
BP,ioos:station:wmo:42369:3,2022-08-03T13:00:00Z,27.2158,-90.2803,486.6,12.6,11111222
BP,ioos:station:wmo:42369:3,2022-08-03T13:20:00Z,27.2158,-90.2804,486.5,12.6,11111222
BP,ioos:station:wmo:42369:3,2022-08-03T13:40:00Z,27.2158,-90.2804,486.5,12.6,11111222
BP,ioos:station:wmo:42369:3,2022-08-03T14:00:00Z,27.2160,-90.2794,486.7,12.6,11111222
BP,ioos:station:wmo:42369:3,2022-08-03T14:20:00Z,27.2159,-90.2805,486.9,12.6,11111222
BP,ioos:station:wmo:42369:3,2022-08-03T14:40:00Z,27.2159,-90.2806,487.4,12.5,11111222
BP,ioos:station:wmo:42369:3,2022-08-03T15:00:00Z,27.2159,-90.2807,487.3,12.5,11111222
BP,ioos:station:wmo:42369:3,2022-08-03T15:20:00Z,27.2159,-90.2806,487.0,12.6,11111222
BP,ioos:station:wmo:42369:3,2022-08-03T16:00:00Z,27.2161,-90.2798,486.0,12.6,11111222
BP,ioos:station:wmo:42369:3,2022-08-03T16:20:00Z,27.2161,-90.2798,484.9,12.6,11111222
BP,ioos:station:wmo:42369:3,2022-08-03T16:40:00Z,27.2161,-90.2797,484.1,12.6,11111222
BP,ioos:station:wmo:42369:3,2022-08-03T17:00:00Z,27.2161,-90.2797,483.7,12.6,11111222
BP,ioos:station:wmo:42369:3,2022-08-03T17:20:00Z,27.2161,-90.2798,483.6,12.6,11111222
BP,ioos:station:wmo:42369:3,2022-08-03T17:40:00Z,27.2160,-90.2801,483.6,12.7,11111222
BP,ioos:station:wmo:42369:3,2022-08-03T18:00:00Z,27.2160,-90.2801,481.9,12.7,11111222
BP,ioos:station:wmo:42369:3,2022-08-03T18:20:00Z,27.2160,-90.2801,481.0,12.7,11111222
BP,ioos:station:wmo:42369:3,2022-08-03T18:40:00Z,27.2160,-90.2801,479.6,12.7,11111222
BP,ioos:station:wmo:42369:3,2022-08-03T19:00:00Z,27.2159,-90.2801,479.9,12.7,11111222
BP,ioos:station:wmo:42369:3,2022-08-03T19:20:00Z,27.2159,-90.2801,478.2,12.8,11111222
BP,ioos:station:wmo:42369:3,2022-08-03T19:40:00Z,27.2159,-90.2801,477.0,12.8,11111222
BP,ioos:station:wmo:42369:3,2022-08-03T20:00:00Z,27.2159,-90.2801,478.0,12.8,11111222
BP,ioos:station:wmo:42369:3,2022-08-03T20:20:00Z,27.2159,-90.2801,476.6,12.9,11111222
BP,ioos:station:wmo:42369:3,2022-08-03T20:40:00Z,27.2159,-90.2802,475.4,12.9,11111222
BP,ioos:station:wmo:42369:3,2022-08-03T21:00:00Z,27.2158,-90.2804,476.7,12.9,11111222
BP,ioos:station:wmo:42369:3,2022-08-03T21:20:00Z,27.2158,-90.2804,474.6,12.9,11111222
BP,ioos:station:wmo:42369:3,2022-08-03T21:40:00Z,27.2159,-90.2806,473.3,13.0,11111222
BP,ioos:station:wmo:42369:3,2022-08-03T22:00:00Z,27.2159,-90.2807,472.3,13.0,11111222
BP,ioos:station:wmo:42369:3,2022-08-03T23:20:00Z,27.2162,-90.2817,473.3,13.0,11111222
BP,ioos:station:wmo:42369:3,2022-08-03T23:40:00Z,27.2162,-90.2816,473.3,13.0,11111222
BP,ioos:station:wmo:42369:3,2022-08-04T00:00:00Z,27.2162,-90.2814,473.7,13.1,11111222
BP,ioos:station:wmo:42369:3,2022-08-04T00:20:00Z,27.2163,-90.2818,472.2,13.1,11111222
BP,ioos:station:wmo:42369:3,2022-08-04T00:40:00Z,27.2163,-90.2819,474.7,13.1,11111222
BP,ioos:station:wmo:42369:3,2022-08-04T02:00:00Z,27.2161,-90.2811,475.9,13.0,11111222
BP,ioos:station:wmo:42369:3,2022-08-04T02:20:00Z,27.2162,-90.2813,475.6,13.0,11111222
BP,ioos:station:wmo:42369:3,2022-08-04T02:40:00Z,27.2162,-90.2814,476.0,13.0,11111222
BP,ioos:station:wmo:42369:3,2022-08-04T03:00:00Z,27.2161,-90.2814,475.6,13.0,11111222
BP,ioos:station:wmo:42369:3,2022-08-04T03:20:00Z,27.2161,-90.2815,475.4,13.0,11111222
BP,ioos:station:wmo:42369:3,2022-08-04T03:40:00Z,27.2162,-90.2816,474.9,13.0,11111222
BP,ioos:station:wmo:42369:3,2022-08-04T04:00:00Z,27.2162,-90.2817,474.9,13.0,11111222
BP,ioos:station:wmo:42369:3,2022-08-04T04:20:00Z,27.2163,-90.2818,475.3,13.0,11111222
BP,ioos:station:wmo:42369:3,2022-08-04T04:40:00Z,27.2163,-90.2818,475.5,13.0,11111222
BP,ioos:station:wmo:42369:3,2022-08-04T05:40:00Z,27.2163,-90.2823,476.7,12.9,11111222
BP,ioos:station:wmo:42369:3,2022-08-04T06:40:00Z,27.2163,-90.2823,477.5,12.9,11111222
BP,ioos:station:wmo:42369:3,2022-08-04T07:00:00Z,27.2163,-90.2822,477.8,12.9,11111222
BP,ioos:station:wmo:42369:3,2022-08-04T08:20:00Z,27.2167,-90.2814,477.6,12.9,11111222
BP,ioos:station:wmo:42369:3,2022-08-04T08:40:00Z,27.2166,-90.2812,477.2,12.9,11111222
BP,ioos:station:wmo:42369:3,2022-08-04T09:00:00Z,27.2163,-90.2823,478.6,12.9,11111222
BP,ioos:station:wmo:42369:3,2022-08-04T09:20:00Z,27.2163,-90.2823,478.0,12.9,11111222
BP,ioos:station:wmo:42369:3,2022-08-04T09:40:00Z,27.2163,-90.2823,477.4,13.0,11111222
BP,ioos:station:wmo:42369:3,2022-08-04T11:00:00Z,27.2163,-90.2805,478.0,13.0,11111222
BP,ioos:station:wmo:42369:3,2022-08-04T11:20:00Z,27.2163,-90.2805,476.7,13.0,11111222
BP,ioos:station:wmo:42369:3,2022-08-04T13:00:00Z,27.2163,-90.2820,478.4,12.9,11111222
BP,ioos:station:wmo:42369:3,2022-08-04T13:20:00Z,27.2162,-90.2820,476.3,12.9,11111222
BP,ioos:station:wmo:42369:3,2022-08-04T14:00:00Z,27.2163,-90.2829,477.8,12.8,11111222
BP,ioos:station:wmo:42369:3,2022-08-04T14:20:00Z,27.2163,-90.2829,478.3,12.8,11111222
BP,ioos:station:wmo:42369:3,2022-08-04T14:40:00Z,27.2163,-90.2829,479.6,12.8,11111222
BP,ioos:station:wmo:42369:3,2022-08-04T15:00:00Z,27.2164,-90.2827,479.5,12.8,11111222
BP,ioos:station:wmo:42369:3,2022-08-04T15:20:00Z,27.2165,-90.2830,477.9,12.8,11111222
BP,ioos:station:wmo:42369:3,2022-08-04T17:40:00Z,27.2168,-90.2819,485.2,12.7,11111222
BP,ioos:station:wmo:42369:3,2022-08-04T18:20:00Z,27.2164,-90.2821,492.9,12.7,11111222
BP,ioos:station:wmo:42369:3,2022-08-04T18:40:00Z,27.2164,-90.2822,492.6,12.6,11111222
BP,ioos:station:wmo:42369:3,2022-08-04T19:00:00Z,27.2168,-90.2818,494.3,12.6,11111222
BP,ioos:station:wmo:42369:3,2022-08-04T19:20:00Z,27.2168,-90.2817,493.5,12.6,11111222
BP,ioos:station:wmo:42369:3,2022-08-04T19:40:00Z,27.2168,-90.2815,494.9,12.6,11111222
BP,ioos:station:wmo:42369:3,2022-08-04T20:00:00Z,27.2165,-90.2809,490.6,12.6,11111222
BP,ioos:station:wmo:42369:3,2022-08-04T20:20:00Z,27.2163,-90.2806,485.9,12.6,11111222
BP,ioos:station:wmo:42369:3,2022-08-04T20:40:00Z,27.2162,-90.2804,482.8,12.7,11111222
BP,ioos:station:wmo:42369:3,2022-08-04T21:00:00Z,27.2163,-90.2825,480.3,12.8,11111222
BP,ioos:station:wmo:42369:3,2022-08-04T21:20:00Z,27.2163,-90.2826,478.8,12.8,11111222
BP,ioos:station:wmo:42369:3,2022-08-04T22:40:00Z,27.2162,-90.2827,473.6,12.9,11111222
BP,ioos:station:wmo:42369:3,2022-08-04T23:00:00Z,27.2162,-90.2827,471.8,12.9,11111222
BP,ioos:station:wmo:42369:3,2022-08-04T23:20:00Z,27.2162,-90.2827,471.6,12.9,11111222
BP,ioos:station:wmo:42369:3,2022-08-04T23:40:00Z,27.2162,-90.2827,472.0,12.9,11111222
BP,ioos:station:wmo:42369:3,2022-08-05T00:00:00Z,27.2160,-90.2814,471.1,12.9,11111222
BP,ioos:station:wmo:42369:3,2022-08-05T00:20:00Z,27.2159,-90.2814,470.3,12.9,11111222
BP,ioos:station:wmo:42369:3,2022-08-05T00:40:00Z,27.2159,-90.2814,469.5,12.9,11111222
BP,ioos:station:wmo:42369:3,2022-08-05T01:00:00Z,27.2162,-90.2827,470.2,12.9,11111222
BP,ioos:station:wmo:42369:3,2022-08-05T01:20:00Z,27.2162,-90.2827,469.5,12.9,11111222
BP,ioos:station:wmo:42369:3,2022-08-05T01:40:00Z,27.2162,-90.2827,468.6,12.9,11111222
BP,ioos:station:wmo:42369:3,2022-08-05T02:00:00Z,27.2162,-90.2827,467.9,12.9,11111222
BP,ioos:station:wmo:42369:3,2022-08-05T02:20:00Z,27.2162,-90.2826,468.8,12.9,11111222
BP,ioos:station:wmo:42369:3,2022-08-05T02:40:00Z,27.2162,-90.2826,469.9,12.9,11111222
BP,ioos:station:wmo:42369:3,2022-08-05T03:00:00Z,27.2162,-90.2826,469.3,12.9,11111222
BP,ioos:station:wmo:42369:3,2022-08-05T03:20:00Z,27.2161,-90.2826,470.4,12.9,11111222
BP,ioos:station:wmo:42369:3,2022-08-05T03:40:00Z,27.2161,-90.2826,470.3,12.9,11111222
BP,ioos:station:wmo:42369:3,2022-08-05T04:00:00Z,27.2161,-90.2826,471.0,12.9,11111222
BP,ioos:station:wmo:42369:3,2022-08-05T04:20:00Z,27.2161,-90.2826,471.7,12.8,11111222
BP,ioos:station:wmo:42369:3,2022-08-05T04:40:00Z,27.2160,-90.2826,472.1,12.8,11111222
BP,ioos:station:wmo:42369:3,2022-08-05T05:00:00Z,27.2162,-90.2822,473.2,12.8,11111222
BP,ioos:station:wmo:42369:3,2022-08-05T05:40:00Z,27.2160,-90.2826,473.5,12.8,11111222
BP,ioos:station:wmo:42369:3,2022-08-05T06:00:00Z,27.2160,-90.2826,474.2,12.7,11111222
BP,ioos:station:wmo:42369:3,2022-08-05T06:20:00Z,27.2160,-90.2826,474.1,12.8,11111222
BP,ioos:station:wmo:42369:3,2022-08-05T06:40:00Z,27.2160,-90.2826,473.6,12.8,11111222
BP,ioos:station:wmo:42369:3,2022-08-05T07:00:00Z,27.2162,-90.2826,475.0,12.8,11111222
BP,ioos:station:wmo:42369:3,2022-08-05T07:20:00Z,27.2163,-90.2829,473.2,12.8,11111222
BP,ioos:station:wmo:42369:3,2022-08-05T07:40:00Z,27.2163,-90.2829,474.6,12.8,11111222
BP,ioos:station:wmo:42369:3,2022-08-05T08:00:00Z,27.2163,-90.2829,475.6,12.8,11111222
BP,ioos:station:wmo:42369:3,2022-08-05T08:20:00Z,27.2164,-90.2829,475.9,12.7,11111222
BP,ioos:station:wmo:42369:3,2022-08-05T08:40:00Z,27.2164,-90.2828,477.5,12.7,11111222
BP,ioos:station:wmo:42369:3,2022-08-05T09:00:00Z,27.2164,-90.2828,477.9,12.7,11111222
BP,ioos:station:wmo:42369:3,2022-08-05T09:20:00Z,27.2165,-90.2830,478.2,12.7,11111222
BP,ioos:station:wmo:42369:3,2022-08-05T09:40:00Z,27.2160,-90.2826,477.4,12.6,11111222
BP,ioos:station:wmo:42369:3,2022-08-05T10:20:00Z,27.2160,-90.2826,481.2,12.6,11111222
BP,ioos:station:wmo:42369:3,2022-08-05T10:40:00Z,27.2160,-90.2826,480.9,12.5,11111222
BP,ioos:station:wmo:42369:3,2022-08-05T11:20:00Z,27.2160,-90.2826,485.1,12.5,11111222
BP,ioos:station:wmo:42369:3,2022-08-05T11:40:00Z,27.2160,-90.2826,484.7,12.4,11111222
BP,ioos:station:wmo:42369:3,2022-08-05T12:00:00Z,27.2160,-90.2826,485.0,12.4,11111222
BP,ioos:station:wmo:42369:3,2022-08-05T12:20:00Z,27.2160,-90.2826,485.0,12.4,11111222
BP,ioos:station:wmo:42369:3,2022-08-05T12:40:00Z,27.2160,-90.2826,483.9,12.4,11111222
BP,ioos:station:wmo:42369:3,2022-08-05T13:00:00Z,27.2160,-90.2826,486.2,12.4,11111222
BP,ioos:station:wmo:42369:3,2022-08-05T13:20:00Z,27.2160,-90.2826,486.9,12.4,11111222
BP,ioos:station:wmo:42369:3,2022-08-05T13:40:00Z,27.2160,-90.2826,486.8,12.4,11111222